Location: Mesa Vista Observatory
(35.5777°N, 105.6987°W)
Time: 01:38:56
(UTC-06:00)

Hubble Space Telescope - Pass Details

Date: 19 June 2019
Orbit: 536 x 540 km, 28.5° (Epoch: 22 July)

Event Time Altitude Azimuth Distance (km) Brightness Sun altitude
Exits shadow 03:57:49 25° 165° (SSE) 1,087 2.0 -18.1°
Drops below altitude 10° 04:00:28 10° 128° (SE) 1,771 3.4 -17.7°
Sets 04:02:57 0° 116° (ESE) 2,660 4.5 -17.4°
